This is the latest recevied weather packets stored in our database for station/object KE8AFF-13. If no packets are shown the sender has not sent any weather packets the latest 10 day(s).
| Time | Temp. | Humidity | Pressure | Rain* | Wind** | Luminosity | Snow |
|---|---|---|---|---|---|---|---|
| 1788137965 | 75° F | 89% | 764 mmHg | 0 in | - | 0 W/m² | - |
| 1788137661 | 75° F | 88% | 764.2 mmHg | 0 in | - | 0 W/m² | - |
| 1788137360 | 75° F | 87% | 764 mmHg | 0 in | - | 0 W/m² | - |
| 1788137057 | 75° F | 85% | 764.3 mmHg | 0 in | - | 0 W/m² | - |
| 1788136758 | 76° F | 82% | 764.1 mmHg | 0 in | - | 0 W/m² | - |
| 1788136453 | 76° F | 82% | 764.2 mmHg | 0 in | - | 0 W/m² | - |
| 1788136148 | 77° F | 82% | 764 mmHg | 0 in | - | 0 W/m² | - |
| 1788135847 | 77° F | 82% | 764.1 mmHg | 0 in | - | 0 W/m² | - |
| 1788135542 | 77° F | 82% | 764.2 mmHg | 0 in | - | 0 W/m² | - |
| 1788135237 | 77° F | 82% | 764 mmHg | 0 in | - | 0 W/m² | - |
| 1788134935 | 77° F | 81% | 763.9 mmHg | 0 in | - | 0 W/m² | - |
| 1788134630 | 77° F | 81% | 763.9 mmHg | 0 in | - | 0 W/m² | - |
| 1788134328 | 78° F | 80% | 764 mmHg | 0 in | - | 1 W/m² | - |
| 1788134023 | 78° F | 79% | 764 mmHg | 0 in | - | 2 W/m² | - |
| 1788133719 | 78° F | 79% | 764.1 mmHg | 0 in | - | 3 W/m² | - |
| 1788133414 | 78° F | 78% | 764.2 mmHg | 0 in | - | 5 W/m² | - |
| 1788133110 | 78° F | 77% | 764 mmHg | 0 in | - | 6 W/m² | - |
| 1788132805 | 78° F | 77% | 763.9 mmHg | 0 in | - | 6 W/m² | - |
| 1788132500 | 78° F | 77% | 763.7 mmHg | 0 in | - | 6 W/m² | - |
| 1788132196 | 79° F | 76% | 763.6 mmHg | 0 in | - | 10 W/m² | - |
| 1788131892 | 79° F | 76% | 763.5 mmHg | 0 in | - | 17 W/m² | - |
| 1788131587 | 79° F | 75% | 763.4 mmHg | 0 in | - | 29 W/m² | - |
| 1788131281 | 79° F | 74% | 763.3 mmHg | 0 in | - | 42 W/m² | - |
| 1788130977 | 80° F | 74% | 763.3 mmHg | 0 in | - | 74 W/m² | - |
| 1788130676 | 80° F | 74% | 763.3 mmHg | 0 in | - | 93 W/m² | - |
* Rain latest hour (hover to see other rain measurements)
** Current wind speed in m/s (hover to see current wind gust speed)